TimeCST,TemperatureF,Dew PointF,Humidity,Sea Level PressureIn,VisibilityMPH,Wind Direction,Wind SpeedMPH,Gust SpeedMPH,PrecipitationIn,Events,Conditions,WindDirDegrees,DateUTC
12:15 AM,47.8,40.1,75,30.46,10.0,Calm,Calm,-,N/A,,Clear,0,2013-01-18 06:15:00
12:35 AM,46.8,40.5,79,30.46,10.0,Calm,Calm,-,N/A,,Clear,0,2013-01-18 06:35:00
12:55 AM,46.0,40.6,81,30.46,10.0,NNW,3.5,-,N/A,,Clear,340,2013-01-18 06:55:00
1:15 AM,47.5,40.1,76,30.46,10.0,Calm,Calm,-,N/A,,Clear,0,2013-01-18 07:15:00
1:35 AM,46.4,39.4,77,30.46,10.0,Calm,Calm,-,N/A,,Clear,0,2013-01-18 07:35:00
1:55 AM,45.7,39.6,79,30.46,10.0,Calm,Calm,-,N/A,,Clear,0,2013-01-18 07:55:00
2:15 AM,43.2,38.5,84,30.46,10.0,WNW,3.5,-,N/A,,Clear,290,2013-01-18 08:15:00
2:35 AM,44.8,39.4,81,30.46,10.0,Calm,Calm,-,N/A,,Clear,0,2013-01-18 08:35:00
2:55 AM,43.9,39.4,84,30.46,10.0,NW,3.5,-,N/A,,Clear,320,2013-01-18 08:55:00
3:15 AM,44.8,39.2,81,30.46,10.0,NW,3.5,-,N/A,,Clear,320,2013-01-18 09:15:00
3:35 AM,44.6,39.2,81,30.46,10.0,NW,3.5,-,N/A,,Clear,320,2013-01-18 09:35:00
3:55 AM,44.6,39.2,81,30.46,10.0,NW,3.5,-,N/A,,Clear,310,2013-01-18 09:55:00
4:15 AM,45.1,39.6,81,30.46,10.0,NW,3.5,-,N/A,,Clear,320,2013-01-18 10:15:00
4:35 AM,45.7,39.7,80,30.46,10.0,NW,5.8,-,N/A,,Clear,320,2013-01-18 10:35:00
4:55 AM,45.5,39.6,80,30.45,10.0,NNW,4.6,-,N/A,,Clear,330,2013-01-18 10:55:00
5:15 AM,45.5,39.6,80,30.45,10.0,NW,4.6,-,N/A,,Clear,320,2013-01-18 11:15:00
5:35 AM,44.2,39.0,82,30.45,10.0,West,3.5,-,N/A,,Clear,260,2013-01-18 11:35:00
5:55 AM,43.5,39.0,84,30.45,10.0,Calm,Calm,-,N/A,,Clear,0,2013-01-18 11:55:00
6:15 AM,42.3,38.3,86,30.45,10.0,Calm,Calm,-,N/A,,Clear,0,2013-01-18 12:15:00
6:35 AM,42.3,37.4,83,30.46,10.0,WNW,3.5,-,N/A,,Clear,290,2013-01-18 12:35:00
6:55 AM,43.0,38.3,84,30.46,10.0,NW,3.5,-,N/A,,Clear,320,2013-01-18 12:55:00
7:15 AM,42.6,37.6,82,30.47,10.0,Calm,Calm,-,N/A,,Clear,0,2013-01-18 13:15:00
7:35 AM,42.1,37.9,85,30.47,10.0,NW,3.5,-,N/A,,Clear,310,2013-01-18 13:35:00
7:55 AM,41.7,37.4,85,30.48,10.0,WNW,3.5,-,N/A,,Clear,290,2013-01-18 13:55:00
8:15 AM,43.0,38.3,84,30.48,10.0,Calm,Calm,-,N/A,,Clear,0,2013-01-18 14:15:00
8:35 AM,45.3,39.9,81,30.49,10.0,NW,3.5,-,N/A,,Clear,320,2013-01-18 14:35:00
8:55 AM,46.6,40.3,79,30.50,10.0,NNW,3.5,-,N/A,,Clear,340,2013-01-18 14:55:00
9:15 AM,50.5,42.1,73,30.50,10.0,Calm,Calm,-,N/A,,Clear,0,2013-01-18 15:15:00
9:35 AM,55.8,43.0,62,30.50,10.0,NNE,4.6,-,N/A,,Clear,20,2013-01-18 15:35:00
9:55 AM,58.5,42.4,55,30.51,10.0,North,5.8,-,N/A,,Clear,10,2013-01-18 15:55:00
10:15 AM,61.2,42.1,50,30.51,10.0,North,5.8,-,N/A,,Clear,10,2013-01-18 16:15:00
10:35 AM,62.8,41.5,46,30.51,10.0,NE,5.8,-,N/A,,Clear,40,2013-01-18 16:35:00
10:55 AM,64.2,41.5,44,30.50,10.0,ENE,5.8,-,N/A,,Clear,70,2013-01-18 16:55:00
11:15 AM,65.7,41.0,41,30.50,10.0,ENE,6.9,-,N/A,,Clear,70,2013-01-18 17:15:00
11:35 AM,67.1,41.5,39,30.48,10.0,NE,6.9,-,N/A,,Clear,40,2013-01-18 17:35:00
11:55 AM,67.8,41.9,39,30.47,10.0,ENE,6.9,10.4,N/A,,Clear,60,2013-01-18 17:55:00
12:15 PM,68.0,40.8,37,30.45,10.0,NNE,3.5,-,N/A,,Clear,30,2013-01-18 18:15:00
12:35 PM,68.4,40.3,36,30.44,10.0,SE,6.9,-,N/A,,Clear,140,2013-01-18 18:35:00
12:55 PM,68.9,39.6,34,30.42,10.0,East,8.1,-,N/A,,Clear,100,2013-01-18 18:55:00
1:15 PM,69.8,39.6,33,30.40,10.0,SE,8.1,-,N/A,,Clear,140,2013-01-18 19:15:00
1:35 PM,70.2,39.9,33,30.39,10.0,East,8.1,-,N/A,,Clear,90,2013-01-18 19:35:00
1:55 PM,70.7,38.5,31,30.37,10.0,Calm,Calm,-,N/A,,Clear,0,2013-01-18 19:55:00
2:15 PM,70.3,38.3,31,30.36,10.0,ENE,5.8,-,N/A,,Clear,60,2013-01-18 20:15:00
2:35 PM,70.3,39.4,32,30.35,10.0,Calm,Calm,-,N/A,,Clear,0,2013-01-18 20:35:00
2:55 PM,72.0,39.7,31,30.35,10.0,East,8.1,-,N/A,,Clear,100,2013-01-18 20:55:00
3:15 PM,71.4,38.5,30,30.34,10.0,NE,3.5,-,N/A,,Clear,40,2013-01-18 21:15:00
3:35 PM,72.5,40.8,32,30.33,10.0,East,9.2,-,N/A,,Clear,100,2013-01-18 21:35:00
3:55 PM,71.6,40.5,32,30.33,10.0,ESE,6.9,-,N/A,,Clear,110,2013-01-18 21:55:00
4:15 PM,72.5,42.3,34,30.33,10.0,East,10.4,-,N/A,,Clear,80,2013-01-18 22:15:00
4:35 PM,72.0,43.2,35,30.33,10.0,ENE,11.5,-,N/A,,Clear,70,2013-01-18 22:35:00
4:55 PM,71.4,44.2,38,30.33,10.0,East,6.9,-,N/A,,Clear,80,2013-01-18 22:55:00
5:15 PM,70.5,45.3,40,30.33,10.0,East,10.4,-,N/A,,Clear,80,2013-01-18 23:15:00
5:35 PM,69.4,46.6,44,30.33,10.0,ENE,10.4,-,N/A,,Clear,60,2013-01-18 23:35:00
5:55 PM,67.8,46.8,47,30.33,10.0,ENE,8.1,-,N/A,,Clear,70,2013-01-18 23:55:00
6:15 PM,66.2,47.3,51,30.34,10.0,ENE,8.1,-,N/A,,Clear,70,2013-01-19 00:15:00
6:35 PM,64.0,47.8,56,30.34,10.0,ENE,5.8,-,N/A,,Clear,60,2013-01-19 00:35:00
6:55 PM,62.1,48.4,61,30.34,10.0,ENE,4.6,-,N/A,,Clear,60,2013-01-19 00:55:00
7:15 PM,60.3,48.2,64,30.34,10.0,ENE,4.6,-,N/A,,Clear,70,2013-01-19 01:15:00
7:35 PM,59.9,48.4,66,30.35,10.0,ENE,4.6,-,N/A,,Clear,70,2013-01-19 01:35:00
7:55 PM,58.5,48.2,69,30.35,10.0,East,4.6,-,N/A,,Clear,80,2013-01-19 01:55:00
8:15 PM,57.7,48.2,70,30.36,10.0,ENE,3.5,-,N/A,,Clear,70,2013-01-19 02:15:00
8:35 PM,56.5,48.0,73,30.36,10.0,Calm,Calm,-,N/A,,Clear,0,2013-01-19 02:35:00
8:55 PM,56.3,48.0,74,30.36,10.0,ENE,3.5,-,N/A,,Clear,70,2013-01-19 02:55:00
9:15 PM,54.9,48.0,78,30.36,10.0,Calm,Calm,-,N/A,,Clear,0,2013-01-19 03:15:00
9:35 PM,54.9,48.2,78,30.35,10.0,ENE,3.5,-,N/A,,Clear,70,2013-01-19 03:35:00
9:55 PM,54.1,47.8,79,30.35,10.0,ENE,3.5,-,N/A,,Clear,60,2013-01-19 03:55:00
10:35 PM,51.8,46.6,82,30.35,10.0,Calm,Calm,-,N/A,,Clear,0,2013-01-19 04:35:00
10:55 PM,51.8,46.9,83,30.35,10.0,Calm,Calm,-,N/A,,Clear,0,2013-01-19 04:55:00
11:15 PM,51.4,46.4,83,30.35,10.0,Calm,Calm,-,N/A,,Clear,0,2013-01-19 05:15:00
11:35 PM,49.8,46.2,87,30.34,10.0,Calm,Calm,-,N/A,,Clear,0,2013-01-19 05:35:00
11:55 PM,49.5,45.9,87,30.32,10.0,Calm,Calm,-,N/A,,Clear,0,2013-01-19 05:55:00